SAS508 EKCH-EGJB

Flight info

Callsign SAS508
Flight time 1h 52m
Altitude 38000
Route LANGO P999 ALS N872 PAM L980 IDRID M40 SABER L980 MANGO L620 SAM N63 LELNA
Aircraft A319/M-SDE3FGHIRWY/LB1

Departure

Time 2026-05-08 12:50
Airport Copenhagen Kastrup Airport (EKCH)

Arrival

Time 2026-05-08 14:42
Airport Guernsey Airport (EGJB)
Time Latitude Longitude Altitude Speed Heading
2026-05-08 12:21 55.62734 12.65251 24 ft 0 kts
2026-05-08 12:41 55.62729 12.65250 25 ft 3 kts
2026-05-08 12:41 55.62703 12.65245 25 ft 2 kts
2026-05-08 12:41 55.62681 12.65244 24 ft 4 kts 342°
2026-05-08 12:42 55.62660 12.65269 24 ft 4 kts 306°
2026-05-08 12:42 55.62648 12.65299 28 ft 4 kts 315°
2026-05-08 12:42 55.62625 12.65319 24 ft 3 kts 358°
2026-05-08 12:42 55.62605 12.65320 26 ft 1 kts 359°
2026-05-08 12:45 55.62623 12.65319 24 ft 4 kts 356°
2026-05-08 12:45 55.62653 12.65281 24 ft 7 kts 297°
2026-05-08 12:45 55.62639 12.65197 24 ft 8 kts 226°
2026-05-08 12:45 55.62576 12.65180 24 ft 11 kts 179°
2026-05-08 12:46 55.62493 12.65183 24 ft 13 kts 179°
2026-05-08 12:46 55.62393 12.65200 24 ft 16 kts 178°
2026-05-08 12:46 55.62288 12.65166 25 ft 17 kts 229°
2026-05-08 12:46 55.62315 12.64973 24 ft 19 kts 302°
2026-05-08 12:47 55.62351 12.64775 24 ft 17 kts 262°
2026-05-08 12:47 55.62313 12.64650 24 ft 3 kts 244°
2026-05-08 12:47 55.62301 12.64602 24 ft 6 kts 246°
2026-05-08 12:47 55.62280 12.64518 25 ft 9 kts 246°
2026-05-08 12:48 55.62246 12.64397 23 ft 13 kts 232°
2026-05-08 12:48 55.62160 12.64312 24 ft 15 kts 206°
2026-05-08 12:48 55.62061 12.64227 25 ft 17 kts 205°
2026-05-08 12:48 55.61942 12.64127 24 ft 21 kts 205°
2026-05-08 12:49 55.61809 12.64074 27 ft 17 kts 176°
2026-05-08 12:49 55.61727 12.64084 26 ft 11 kts 176°
2026-05-08 12:49 55.61637 12.64077 27 ft 15 kts 203°
2026-05-08 12:49 55.61493 12.63862 27 ft 50 kts 222°
2026-05-08 12:50 55.61071 12.63213 27 ft 110 kts 221°
2026-05-08 12:50 55.60356 12.62113 50 ft 155 kts 218°
2026-05-08 12:50 55.59552 12.60895 670 ft 155 kts 219°
2026-05-08 12:50 55.58726 12.59622 1347 ft 160 kts 217°
2026-05-08 12:51 55.57876 12.58300 2034 ft 168 kts 219°
2026-05-08 12:51 55.56085 12.54883 2699 ft 215 kts 233°
2026-05-08 12:51 55.55227 12.52514 3130 ft 242 kts 237°
2026-05-08 12:52 55.54327 12.49830 3728 ft 264 kts 238°
2026-05-08 12:52 55.52400 12.44045 5638 ft 280 kts 237°
2026-05-08 12:52 55.51391 12.41086 6681 ft 283 kts 237°
2026-05-08 12:53 55.50358 12.38101 7663 ft 286 kts 236°
2026-05-08 12:53 55.49305 12.35112 8671 ft 288 kts 235°
2026-05-08 12:53 55.48228 12.32126 9687 ft 289 kts 234°
2026-05-08 12:53 55.47132 12.29128 10592 ft 295 kts 234°
2026-05-08 12:54 55.45971 12.25979 10949 ft 318 kts 234°
2026-05-08 12:54 55.44742 12.22655 11566 ft 328 kts 234°
2026-05-08 12:54 55.43488 12.19259 12354 ft 333 kts 235°
2026-05-08 12:54 55.42223 12.15827 13180 ft 336 kts 235°
2026-05-08 12:55 55.40944 12.12351 14020 ft 340 kts 236°
2026-05-08 12:55 55.39655 12.08851 14764 ft 343 kts 236°
2026-05-08 12:55 55.38352 12.05315 15486 ft 346 kts 236°
2026-05-08 12:55 55.37056 12.01801 16192 ft 349 kts 236°
2026-05-08 12:56 55.35729 11.98207 16908 ft 352 kts 236°
2026-05-08 12:56 55.34391 11.94586 17612 ft 355 kts 237°
2026-05-08 12:56 55.33037 11.90927 18334 ft 359 kts 237°
2026-05-08 12:56 55.31671 11.87241 18957 ft 362 kts 237°
2026-05-08 12:57 55.30293 11.83528 19209 ft 363 kts 237°
2026-05-08 12:57 55.28913 11.79814 19267 ft 363 kts 237°
2026-05-08 12:57 55.27533 11.76114 19277 ft 363 kts 237°
2026-05-08 12:57 55.26151 11.72420 19283 ft 362 kts 236°
2026-05-08 12:58 55.24769 11.68733 19280 ft 362 kts 236°
2026-05-08 12:58 55.23385 11.65041 19271 ft 362 kts 237°
2026-05-08 12:58 55.22003 11.61359 19270 ft 362 kts 236°
2026-05-08 12:58 55.20616 11.57670 19273 ft 362 kts 236°
2026-05-08 12:59 55.19233 11.53994 19277 ft 362 kts 236°
2026-05-08 12:59 55.17840 11.50301 19571 ft 365 kts 236°
2026-05-08 12:59 55.16440 11.46593 20191 ft 366 kts 236°
2026-05-08 12:59 55.15029 11.42860 20815 ft 369 kts 236°
2026-05-08 13:00 55.13606 11.39106 21421 ft 371 kts 236°
2026-05-08 13:00 55.12175 11.35339 22025 ft 374 kts 236°
2026-05-08 13:00 55.10745 11.31588 22617 ft 377 kts 236°
2026-05-08 13:00 55.09285 11.27762 23224 ft 380 kts 236°
2026-05-08 13:01 55.07817 11.23906 23821 ft 383 kts 236°
2026-05-08 13:01 55.06341 11.20028 24322 ft 385 kts 236°
2026-05-08 13:01 55.04851 11.16122 24811 ft 388 kts 236°
2026-05-08 13:01 55.03351 11.12195 25287 ft 390 kts 236°
2026-05-08 13:02 55.01836 11.08245 25766 ft 393 kts 236°
2026-05-08 13:02 55.00311 11.04281 26238 ft 395 kts 236°
2026-05-08 13:02 54.98779 11.00298 26703 ft 398 kts 236°
2026-05-08 13:02 54.97230 10.96282 27169 ft 400 kts 236°
2026-05-08 13:03 54.95672 10.92249 27633 ft 403 kts 236°
2026-05-08 13:03 54.94103 10.88192 28083 ft 405 kts 236°
2026-05-08 13:03 54.92526 10.84117 28537 ft 408 kts 236°
2026-05-08 13:03 54.90927 10.79995 28994 ft 411 kts 236°
2026-05-08 13:04 54.89326 10.75876 29432 ft 413 kts 236°
2026-05-08 13:04 54.87708 10.71720 29904 ft 416 kts 236°
2026-05-08 13:04 54.86083 10.67551 30335 ft 419 kts 236°
2026-05-08 13:04 54.84464 10.63402 30696 ft 421 kts 236°
2026-05-08 13:05 54.82818 10.59188 31053 ft 424 kts 236°
2026-05-08 13:05 54.81158 10.54946 31394 ft 426 kts 236°
2026-05-08 13:05 54.79490 10.50688 31728 ft 428 kts 236°
2026-05-08 13:05 54.77813 10.46413 32114 ft 429 kts 236°
2026-05-08 13:06 54.76138 10.42160 32592 ft 427 kts 236°
2026-05-08 13:06 54.74464 10.37920 33082 ft 426 kts 236°
2026-05-08 13:06 54.72792 10.33693 33569 ft 424 kts 236°
2026-05-08 13:06 54.71130 10.29490 34057 ft 423 kts 236°
2026-05-08 13:07 54.69470 10.25303 34496 ft 421 kts 236°
2026-05-08 13:07 54.67813 10.21134 34865 ft 421 kts 236°
2026-05-08 13:07 54.66149 10.16954 35202 ft 421 kts 236°
2026-05-08 13:07 54.64488 10.12791 35523 ft 422 kts 236°
2026-05-08 13:08 54.62821 10.08622 35831 ft 422 kts 236°
2026-05-08 13:08 54.61151 10.04451 36141 ft 422 kts 236°
2026-05-08 13:08 54.59480 10.00280 36438 ft 423 kts 236°
2026-05-08 13:08 54.57833 9.96168 36731 ft 423 kts 236°
2026-05-08 13:09 54.56162 9.91994 37029 ft 423 kts 236°
2026-05-08 13:09 54.54485 9.87821 37318 ft 423 kts 236°
2026-05-08 13:09 54.52805 9.83651 37586 ft 424 kts 236°
2026-05-08 13:09 54.51121 9.79486 37871 ft 424 kts 236°
2026-05-08 13:10 54.49432 9.75318 38127 ft 425 kts 236°
2026-05-08 13:10 54.47742 9.71148 38219 ft 425 kts 236°
2026-05-08 13:10 54.44355 9.62796 38218 ft 426 kts 236°
2026-05-08 13:11 54.40952 9.54459 38221 ft 426 kts 236°
2026-05-08 13:11 54.37546 9.46140 38222 ft 426 kts 236°
2026-05-08 13:12 54.34154 9.37880 38224 ft 426 kts 236°
2026-05-08 13:12 54.30738 9.29579 38219 ft 426 kts 236°
2026-05-08 13:13 54.27316 9.21291 38220 ft 426 kts 236°
2026-05-08 13:13 54.23891 9.13025 38211 ft 426 kts 235°
2026-05-08 13:14 54.20455 9.04769 38210 ft 426 kts 235°
2026-05-08 13:14 54.17009 8.96525 38208 ft 426 kts 235°
2026-05-08 13:15 54.13565 8.88287 38207 ft 426 kts 235°
2026-05-08 13:15 54.10143 8.80118 38203 ft 426 kts 235°
2026-05-08 13:16 54.06688 8.71919 38207 ft 426 kts 235°
2026-05-08 13:16 54.03220 8.63740 38200 ft 425 kts 235°
2026-05-08 13:17 53.99763 8.55583 38200 ft 425 kts 235°
2026-05-08 13:17 53.96301 8.47431 38206 ft 425 kts 235°
2026-05-08 13:18 53.92836 8.39300 38202 ft 425 kts 235°
2026-05-08 13:18 53.89363 8.31196 38197 ft 425 kts 235°
2026-05-08 13:19 53.85902 8.23166 38196 ft 425 kts 235°
2026-05-08 13:19 53.82421 8.15093 38198 ft 424 kts 235°
2026-05-08 13:20 53.78935 8.07029 38199 ft 424 kts 235°
2026-05-08 13:20 53.75446 7.98985 38198 ft 424 kts 234°
2026-05-08 13:21 53.71953 7.90965 38196 ft 424 kts 234°
2026-05-08 13:21 53.68458 7.82956 38195 ft 424 kts 234°
2026-05-08 13:22 53.64957 7.74953 38188 ft 424 kts 234°
2026-05-08 13:22 53.61474 7.67028 38191 ft 424 kts 234°
2026-05-08 13:23 53.57963 7.59067 38186 ft 423 kts 234°
2026-05-08 13:23 53.54446 7.51112 38191 ft 423 kts 234°
2026-05-08 13:24 53.50928 7.43187 38184 ft 423 kts 234°
2026-05-08 13:24 53.47405 7.35268 38162 ft 423 kts 234°
2026-05-08 13:25 53.43880 7.27359 38158 ft 423 kts 234°
2026-05-08 13:25 53.40349 7.19478 38155 ft 423 kts 234°
2026-05-08 13:26 53.36804 7.11599 38157 ft 423 kts 234°
2026-05-08 13:26 53.33290 7.03788 38158 ft 423 kts 234°
2026-05-08 13:27 53.29747 6.95929 38153 ft 423 kts 234°
2026-05-08 13:27 53.26194 6.88089 38158 ft 423 kts 234°
2026-05-08 13:28 53.22627 6.80263 38156 ft 423 kts 234°
2026-05-08 13:28 53.19057 6.72453 38162 ft 423 kts 233°
2026-05-08 13:29 53.15459 6.64670 38159 ft 424 kts 232°
2026-05-08 13:29 53.11671 6.57144 38164 ft 424 kts 230°
2026-05-08 13:30 53.07790 6.49753 38163 ft 424 kts 230°
2026-05-08 13:30 53.03947 6.42372 38158 ft 424 kts 230°
2026-05-08 13:31 53.00111 6.34931 38154 ft 424 kts 231°
2026-05-08 13:31 52.96278 6.27503 38148 ft 424 kts 230°
2026-05-08 13:32 52.92432 6.20083 38143 ft 424 kts 230°
2026-05-08 13:32 52.88583 6.12689 38136 ft 424 kts 230°
2026-05-08 13:33 52.84725 6.05311 38134 ft 424 kts 230°
2026-05-08 13:33 52.80861 5.97919 38133 ft 424 kts 230°
2026-05-08 13:34 52.77000 5.90550 38132 ft 424 kts 230°
2026-05-08 13:34 52.73148 5.83258 38131 ft 424 kts 230°
2026-05-08 13:35 52.69268 5.75911 38127 ft 424 kts 230°
2026-05-08 13:35 52.65383 5.68586 38128 ft 425 kts 230°
2026-05-08 13:36 52.61486 5.61276 38130 ft 425 kts 230°
2026-05-08 13:36 52.57591 5.53969 38133 ft 425 kts 230°
2026-05-08 13:37 52.53688 5.46677 38132 ft 425 kts 230°
2026-05-08 13:37 52.49774 5.39401 38134 ft 425 kts 230°
2026-05-08 13:38 52.46599 5.33493 38132 ft 425 kts 230°
2026-05-08 13:38 52.42669 5.26192 38134 ft 425 kts 230°
2026-05-08 13:39 52.38751 5.18938 38128 ft 425 kts 229°
2026-05-08 13:39 52.34878 5.11628 38123 ft 424 kts 235°
2026-05-08 13:40 52.32224 5.03092 38130 ft 423 kts 252°
2026-05-08 13:40 52.30374 4.93963 38144 ft 423 kts 252°
2026-05-08 13:41 52.28495 4.84858 38143 ft 423 kts 251°
2026-05-08 13:41 52.26609 4.75765 38140 ft 423 kts 251°
2026-05-08 13:42 52.24714 4.66679 38133 ft 423 kts 251°
2026-05-08 13:42 52.22835 4.57654 38144 ft 423 kts 251°
2026-05-08 13:43 52.20935 4.48579 38136 ft 423 kts 251°
2026-05-08 13:43 52.19021 4.39505 38124 ft 423 kts 251°
2026-05-08 13:44 52.17101 4.30445 38128 ft 423 kts 251°
2026-05-08 13:44 52.15177 4.21394 38133 ft 423 kts 251°
2026-05-08 13:45 52.13250 4.12357 38125 ft 423 kts 251°
2026-05-08 13:45 52.11313 4.03327 38132 ft 423 kts 251°
2026-05-08 13:46 52.09367 3.94313 38132 ft 422 kts 251°
2026-05-08 13:46 52.07411 3.85294 38139 ft 423 kts 251°
2026-05-08 13:47 52.05460 3.76296 38133 ft 422 kts 251°
2026-05-08 13:47 52.03505 3.67301 38134 ft 422 kts 251°
2026-05-08 13:48 52.01540 3.58321 38136 ft 422 kts 251°
2026-05-08 13:48 51.99658 3.49313 38129 ft 421 kts 257°
2026-05-08 13:49 51.98725 3.39995 38130 ft 421 kts 261°
2026-05-08 13:49 51.97843 3.30597 38134 ft 421 kts 261°
2026-05-08 13:50 51.96946 3.21208 38132 ft 421 kts 261°
2026-05-08 13:50 51.96117 3.11806 38141 ft 421 kts 263°
2026-05-08 13:51 51.95519 3.02359 38141 ft 421 kts 265°
2026-05-08 13:51 51.94971 2.92902 38141 ft 421 kts 264°
2026-05-08 13:52 51.94368 2.83452 38141 ft 421 kts 264°
2026-05-08 13:52 51.93726 2.74021 38146 ft 421 kts 264°
2026-05-08 13:53 51.93081 2.64662 38150 ft 421 kts 264°
2026-05-08 13:53 51.92432 2.55252 38146 ft 420 kts 264°
2026-05-08 13:54 51.91783 2.45836 38146 ft 420 kts 264°
2026-05-08 13:54 51.91123 2.36445 38145 ft 420 kts 264°
2026-05-08 13:55 51.90574 2.27040 38139 ft 419 kts 267°
2026-05-08 13:56 51.90316 2.12964 38138 ft 418 kts 269°
2026-05-08 13:56 51.90167 2.03553 38139 ft 418 kts 268°
2026-05-08 13:57 51.89936 1.94152 38132 ft 418 kts 268°
2026-05-08 13:57 51.89030 1.84896 38135 ft 418 kts 252°
2026-05-08 13:58 51.87189 1.75959 38134 ft 419 kts 252°
2026-05-08 13:58 51.85371 1.67015 38131 ft 418 kts 252°
2026-05-08 13:59 51.83555 1.58075 38127 ft 418 kts 252°
2026-05-08 13:59 51.81738 1.49213 38125 ft 418 kts 252°
2026-05-08 14:00 51.79896 1.40298 38123 ft 418 kts 252°
2026-05-08 14:00 51.78045 1.31375 38119 ft 418 kts 252°
2026-05-08 14:01 51.76186 1.22486 38107 ft 418 kts 252°
2026-05-08 14:01 51.74317 1.13602 38110 ft 418 kts 252°
2026-05-08 14:02 51.72456 1.04778 38107 ft 418 kts 252°
2026-05-08 14:02 51.70628 0.95881 38109 ft 418 kts 257°
2026-05-08 14:03 51.69812 0.86645 38107 ft 417 kts 264°
2026-05-08 14:03 51.68432 0.77617 38111 ft 419 kts 245°
2026-05-08 14:04 51.65173 0.69813 38098 ft 421 kts 236°
2026-05-08 14:04 51.61763 0.62151 38102 ft 421 kts 237°
2026-05-08 14:05 51.58414 0.54475 38110 ft 422 kts 237°
2026-05-08 14:05 51.55033 0.46777 38105 ft 422 kts 237°
2026-05-08 14:06 51.51625 0.39106 38107 ft 422 kts 236°
2026-05-08 14:06 51.48200 0.31456 38102 ft 421 kts 236°
2026-05-08 14:07 51.44775 0.23835 38113 ft 421 kts 237°
2026-05-08 14:07 51.41354 0.16207 38116 ft 421 kts 236°
2026-05-08 14:08 51.37923 0.08598 38122 ft 421 kts 237°
2026-05-08 14:08 51.34490 0.01016 38121 ft 421 kts 237°
2026-05-08 14:09 51.31081 -0.06500 38122 ft 420 kts 237°
2026-05-08 14:09 51.27651 -0.14048 38125 ft 420 kts 236°
2026-05-08 14:10 51.24224 -0.21571 38101 ft 419 kts 236°
2026-05-08 14:10 51.20799 -0.29082 38100 ft 418 kts 237°
2026-05-08 14:11 51.17372 -0.36557 38106 ft 417 kts 236°
2026-05-08 14:11 51.13940 -0.44013 38109 ft 416 kts 236°
2026-05-08 14:12 51.10519 -0.51421 38103 ft 415 kts 236°
2026-05-08 14:12 51.07114 -0.58826 38102 ft 413 kts 239°
2026-05-08 14:13 51.04796 -0.67047 38098 ft 406 kts 258°
2026-05-08 14:13 51.03625 -0.75753 38095 ft 405 kts 259°
2026-05-08 14:14 51.02440 -0.84500 38094 ft 405 kts 259°
2026-05-08 14:14 51.01240 -0.93229 38100 ft 404 kts 259°
2026-05-08 14:15 51.00046 -1.01935 38101 ft 403 kts 259°
2026-05-08 14:15 50.98858 -1.10621 38093 ft 402 kts 259°
2026-05-08 14:16 50.97657 -1.19276 38095 ft 401 kts 258°
2026-05-08 14:16 50.96268 -1.27847 38087 ft 402 kts 249°
2026-05-08 14:16 50.94967 -1.31774 38097 ft 404 kts 238°
2026-05-08 14:17 50.93173 -1.35225 38085 ft 408 kts 227°
2026-05-08 14:17 50.90947 -1.38038 38092 ft 412 kts 216°
2026-05-08 14:17 50.88407 -1.40199 38084 ft 415 kts 211°
2026-05-08 14:18 50.83244 -1.44306 37793 ft 416 kts 211°
2026-05-08 14:18 50.80654 -1.46367 37530 ft 417 kts 211°
2026-05-08 14:18 50.78064 -1.48423 37250 ft 417 kts 211°
2026-05-08 14:18 50.75464 -1.50485 36974 ft 418 kts 211°
2026-05-08 14:19 50.72861 -1.52547 36708 ft 419 kts 211°
2026-05-08 14:19 50.70253 -1.54614 36365 ft 419 kts 211°
2026-05-08 14:19 50.67652 -1.56677 36039 ft 418 kts 211°
2026-05-08 14:19 50.65061 -1.58732 35697 ft 416 kts 211°
2026-05-08 14:20 50.62481 -1.60771 35363 ft 414 kts 211°
2026-05-08 14:20 50.59908 -1.62800 35035 ft 412 kts 211°
2026-05-08 14:20 50.57348 -1.64814 34715 ft 410 kts 211°
2026-05-08 14:20 50.54800 -1.66815 34396 ft 409 kts 211°
2026-05-08 14:21 50.52261 -1.68806 34083 ft 407 kts 211°
2026-05-08 14:21 50.49731 -1.70787 33723 ft 405 kts 211°
2026-05-08 14:21 50.47214 -1.72754 33360 ft 402 kts 211°
2026-05-08 14:21 50.44741 -1.74683 32910 ft 400 kts 211°
2026-05-08 14:22 50.42226 -1.76649 32451 ft 397 kts 211°
2026-05-08 14:22 50.39798 -1.78546 32010 ft 394 kts 211°
2026-05-08 14:22 50.37323 -1.80478 31566 ft 391 kts 211°
2026-05-08 14:22 50.34933 -1.82340 31142 ft 387 kts 210°
2026-05-08 14:23 50.32524 -1.84218 30663 ft 386 kts 210°
2026-05-08 14:23 50.30129 -1.86084 30226 ft 383 kts 210°
2026-05-08 14:23 50.27745 -1.87939 29728 ft 381 kts 210°
2026-05-08 14:23 50.25347 -1.89800 29213 ft 379 kts 210°
2026-05-08 14:24 50.23015 -1.91602 28717 ft 378 kts 210°
2026-05-08 14:24 50.20637 -1.93435 28225 ft 376 kts 210°
2026-05-08 14:24 50.18322 -1.95217 27741 ft 375 kts 210°
2026-05-08 14:24 50.15958 -1.97041 27263 ft 373 kts 209°
2026-05-08 14:25 50.13664 -1.98814 26807 ft 372 kts 209°
2026-05-08 14:25 50.11343 -2.00604 26342 ft 371 kts 209°
2026-05-08 14:25 50.09003 -2.02402 25890 ft 369 kts 209°
2026-05-08 14:25 50.06703 -2.04163 25444 ft 368 kts 208°
2026-05-08 14:26 50.04443 -2.05895 25014 ft 366 kts 208°
2026-05-08 14:26 50.02164 -2.07646 24578 ft 364 kts 208°
2026-05-08 14:26 49.99875 -2.09411 24157 ft 361 kts 210°
2026-05-08 14:26 49.97817 -2.11590 23734 ft 356 kts 223°
2026-05-08 14:27 49.96128 -2.14368 23268 ft 353 kts 230°
2026-05-08 14:27 49.94531 -2.17177 22782 ft 350 kts 229°
2026-05-08 14:27 49.92923 -2.19991 22304 ft 348 kts 229°
2026-05-08 14:27 49.91302 -2.22824 21824 ft 345 kts 229°
2026-05-08 14:28 49.89712 -2.25595 21356 ft 343 kts 229°
2026-05-08 14:28 49.88660 -2.27419 21052 ft 341 kts 229°
2026-05-08 14:28 49.87085 -2.30153 20599 ft 339 kts 229°
2026-05-08 14:28 49.85521 -2.32867 20151 ft 337 kts 229°
2026-05-08 14:29 49.83964 -2.35575 19701 ft 335 kts 229°
2026-05-08 14:29 49.82424 -2.38254 19257 ft 333 kts 229°
2026-05-08 14:29 49.80889 -2.40922 18829 ft 331 kts 229°
2026-05-08 14:29 49.79360 -2.43581 18405 ft 329 kts 229°
2026-05-08 14:30 49.77842 -2.46212 17929 ft 327 kts 229°
2026-05-08 14:30 49.76327 -2.48829 17449 ft 325 kts 229°
2026-05-08 14:30 49.74819 -2.51432 16967 ft 324 kts 228°
2026-05-08 14:30 49.73319 -2.54019 16493 ft 322 kts 228°
2026-05-08 14:31 49.71795 -2.56532 16028 ft 320 kts 221°
2026-05-08 14:31 49.69933 -2.58381 15574 ft 318 kts 204°
2026-05-08 14:31 49.67803 -2.59260 15100 ft 318 kts 186°
2026-05-08 14:32 49.63406 -2.59486 14241 ft 314 kts 182°
2026-05-08 14:32 49.61231 -2.59583 13803 ft 312 kts 182°
2026-05-08 14:32 49.59067 -2.59680 13317 ft 310 kts 182°
2026-05-08 14:32 49.56916 -2.59779 12837 ft 308 kts 182°
2026-05-08 14:33 49.54779 -2.59877 12364 ft 306 kts 182°
2026-05-08 14:33 49.52656 -2.59975 11893 ft 305 kts 182°
2026-05-08 14:33 49.50542 -2.60071 11440 ft 303 kts 182°
2026-05-08 14:33 49.48438 -2.60167 10987 ft 302 kts 182°
2026-05-08 14:34 49.46388 -2.60486 10544 ft 301 kts 197°
2026-05-08 14:34 49.44593 -2.62155 10092 ft 301 kts 226°
2026-05-08 14:34 49.43600 -2.64965 9629 ft 304 kts 256°
2026-05-08 14:34 49.43419 -2.68167 9157 ft 305 kts 266°
2026-05-08 14:35 49.43313 -2.71417 8687 ft 304 kts 265°
2026-05-08 14:35 49.43188 -2.74689 8215 ft 302 kts 265°
2026-05-08 14:35 49.43062 -2.77861 7764 ft 301 kts 265°
2026-05-08 14:35 49.43246 -2.81052 7306 ft 302 kts 283°
2026-05-08 14:36 49.44080 -2.84003 6863 ft 303 kts 302°
2026-05-08 14:36 49.45440 -2.86463 6420 ft 302 kts 313°
2026-05-08 14:36 49.46887 -2.88789 5957 ft 300 kts 313°
2026-05-08 14:36 49.48201 -2.91307 5482 ft 297 kts 295°
2026-05-08 14:37 49.48583 -2.94364 5028 ft 291 kts 262°
2026-05-08 14:37 49.47852 -2.97183 4572 ft 285 kts 229°
2026-05-08 14:37 49.46290 -2.98846 4185 ft 276 kts 195°
2026-05-08 14:37 49.44423 -2.98862 3831 ft 268 kts 161°
2026-05-08 14:38 49.42938 -2.97250 3478 ft 264 kts 126°
2026-05-08 14:38 49.42360 -2.94634 3118 ft 262 kts 92°
2026-05-08 14:38 49.42567 -2.91886 2879 ft 256 kts 83°
2026-05-08 14:38 49.42729 -2.89222 2756 ft 245 kts 87°
2026-05-08 14:39 49.42812 -2.86638 2702 ft 241 kts 89°
2026-05-08 14:39 49.42836 -2.84066 2709 ft 241 kts 90°
2026-05-08 14:39 49.42883 -2.81500 2700 ft 235 kts 89°
2026-05-08 14:39 49.42954 -2.79045 2555 ft 227 kts 89°
2026-05-08 14:40 49.43025 -2.76645 2288 ft 223 kts 89°
2026-05-08 14:40 49.43095 -2.74269 2000 ft 222 kts 88°
2026-05-08 14:40 49.43163 -2.71912 1709 ft 218 kts 89°
2026-05-08 14:40 49.43230 -2.69613 1399 ft 209 kts 88°
2026-05-08 14:41 49.43290 -2.67491 1132 ft 188 kts 88°
2026-05-08 14:41 49.43345 -2.65561 888 ft 175 kts 87°
2026-05-08 14:41 49.43393 -2.63811 665 ft 151 kts 86°
2026-05-08 14:41 49.43435 -2.62308 433 ft 132 kts 85°
2026-05-08 14:42 49.43471 -2.60945 331 ft 119 kts 84°
2026-05-08 14:42 49.43503 -2.59978 333 ft 55 kts 87°
2026-05-08 14:42 49.43514 -2.59605 341 ft 28 kts 87°
2026-05-08 14:42 49.43522 -2.59333 348 ft 24 kts 87°
2026-05-08 14:43 49.43470 -2.59200 350 ft 10 kts 176°
2026-05-08 14:43 49.43417 -2.59196 348 ft 8 kts 182°
2026-05-08 14:43 49.43374 -2.59248 347 ft 8 kts 251°
2026-05-08 14:43 49.43369 -2.59341 345 ft 9 kts 266°
2026-05-08 14:44 49.43366 -2.59441 344 ft 10 kts 268°
2026-05-08 14:44 49.43364 -2.59550 342 ft 11 kts 269°
2026-05-08 14:44 49.43341 -2.59622 339 ft 5 kts 191°
2026-05-08 14:44 49.43307 -2.59625 341 ft 4 kts 176°
2026-05-08 14:45 49.43280 -2.59623 341 ft 4 kts 176°
2026-05-08 14:45 49.43259 -2.59622 341 ft 3 kts 178°
2026-05-08 14:45 49.43251 -2.59621 341 ft 0 kts 178°